GSAT0103 (GALILEO-FM3)

Last updated on Nov. 19, 2019, 4:25 a.m. UTC

1 38857U 12055A   19322.23765226  .00000080  00000-0  00000+0 0  9991
2 38857  54.9469 167.6253 0001081 253.3537 106.7120  1.70473765 44193
UTC
Height (km)
Latitude
Longitude
Inclination
Orbital Period
UTC large
Height (km)
Speed (km/s)
/
Latitude / Longitude
Inclination (degrees)
Orbital Period (minutes)
Azimuth
Elevation
Range (km)
Doppler Factor
iOS Compass Heading
iOS Angle

Next 30 passes for location: Hong Kong

Rise time Rise Azimuth (degrees) Set time Set Azimuth (degrees) Duration Max altitude (degrees)

No matching passes for this satellites